Regional Weather Roundup
Issued by NWS Burlington, VT

Home | Current Version | Previous Version | Text Only | Print | Product List | Glossary On
Versions: 1 2 3 4 5 6 7 8 9 10 11 12 13 14 15 16 17 18 19 20 21 22 23 24 25 26 27 28 29 30 31 32 33 34 35 36 37 38 39 40 41 42 43 44 45 46 47 48 49 50
000
ASUS41 KBTV 302230
RWRBTV
VERMONT REGIONAL WEATHER ROUNDUP
NATIONAL WEATHER SERVICE BURLINGTON VT
600 PM EDT TUE AUG 30 2016

NOTE: "FAIR" INDICATES FEW OR NO CLOUDS BELOW 12,000 FEET WITH NO
SIGNIFICANT WEATHER AND/OR OBSTRUCTIONS TO VISIBILITY.

* THESE REPORTS ARE NOT UNDER NWS QUALITY CONTROL AND/OR DO NOT
  REPORT WEATHER SUCH AS PRECIPITATION AND FOG.

VTZ001>019-302300-
_____VERMONT_____


CITY           SKY/WX    TMP DP  RH WIND       PRES   REMARKS
BURLINGTON     PTSUNNY   77  57  50 SE7       30.02F
MONTPELIER     CLOUDY    71  57  61 SW3       30.10F
MORRISVILLE    CLOUDY    71  62  73 CALM      30.06F
ST. JOHNSBURY*   N/A     73  59  61 MISG      30.03S
LYNDONVILLE*   FAIR      69  57  66 CALM      30.08F
MIDDLEBURY*    FAIR      74  60  60 SE3       30.03F
RUTLAND*       SUNNY     74  58  57 S3        30.06F
SPRINGFIELD    SUNNY     77  52  41 W7        30.06S
HIGHGATE*      CLOUDY    72  64  77 CALM      30.01F
NEWPORT*       PTSUNNY   67  57  70 CALM      30.05F
BENNINGTON     SUNNY     76  57  51 CALM      30.07F
SUTTON*          N/A     66 N/A N/A MISG        N/A
GALLUP MILLS*    N/A     66 N/A N/A MISG        N/A
UNION VILLAGE*   N/A     72 N/A N/A MISG        N/A
MT. MANSFIELD*   N/A     59 N/A N/A NW20        N/A

_____LAKE CHAMPLAIN_____


CITY           SKY/WX    TMP DP  RH WIND       PRES   REMARKS
BURTON ISLAND*   N/A     75  64  69 SE6         N/A
COLCHESTER RF*   N/A     75  63  64 S8          N/A
DIAMOND ISL*     N/A     79  59  50 E3          N/A

$$

NYZ007-026>031-035-052-083-087-302300-
_____NORTHERN NEW YORK_____


CITY           SKY/WX    TMP DP  RH WIND       PRES   REMARKS
PLATTSBURGH    CLOUDY    74  62  66 SE6       30.00F
SARANAC LAKE   CLOUDY    71  56  58 SW7       30.06F
MASSENA        CLOUDY    76  60  57 SW8       30.01F
OGDENSBURG*    SUNNY     75  61  60 SW7       30.00F
POTSDAM*       SUNNY     75  63  64 SW7       30.01F
STARK FALLS*     N/A    N/A N/A N/A SW7         N/A
WATERTOWN      SUNNY     78  58  49 SW7       30.04F
FT DRUM        SUNNY     78  57  48 SW13      30.04F
ALBANY         MOSUNNY   80  54  40 W9        30.05S
GLENS FALLS    SUNNY     79  59  50 SW7       30.02F

$$
NHZ002-005-011-302300-
_____NEW HAMPSHIRE_____


CITY           SKY/WX    TMP DP  RH WIND       PRES   REMARKS
LEBANON        MOSUNNY   79  55  43 N7        30.04F
KEENE          SUNNY     79  55  43 NW7       30.05S
MT WASHINGTON  FOG       46  46 100 W33         N/A  VSB 1/16
PLYMOUTH       FAIR      75  58  55 CALM      30.04S
WHITEFIELD     CLOUDY    71  57  61 CALM      30.07S

$$

_____REGIONAL QUEBEC LOCATIONS_____


CITY           SKY/WX    TMP DP  RH WIND       PRES   REMARKS
MONTREAL       CLOUDY    75  63  64 SW13G23   29.98F
QUEBEC CITY    PTSUNNY   72  61  68 SW10G17   29.98S
SHERBROOKE     MOSUNNY   72  57  60 W6        30.03F

_____REGIONAL ONTARIO LOCATIONS_____


CITY           SKY/WX    TMP DP  RH WIND       PRES   REMARKS
OTTAWA         PTSUNNY   75  63  64 S8        29.99S

______KEY______
VSB  - VISIBILITY IN MILES
WCI  - WIND CHILL INDEX
HX   - HEAT INDEX
$$
NNNN




USA.gov is the U.S. government's official web portal to all federal, state and local government web resources and services.